Time,TemperatureF,DewpointF,PressureIn,WindDirection,WindDirectionDegrees,WindSpeedMPH,WindSpeedGustMPH,Humidity,HourlyPrecipIn,Conditions,Clouds,dailyrainin,SolarRadiationWatts/m^2,SoftwareType,DateUTC
2013-02-28 00:01:00,27.0,19.0,-100.00,NE,35,6.0,19.0,72,0.00,,,0.00,0.000000,,2013-02-28 06:01:00,
2013-02-28 00:32:00,26.0,19.0,-100.00,NNE,29,6.0,19.0,74,0.00,,,0.00,0.000000,,2013-02-28 06:32:00,
2013-02-28 00:42:00,26.0,19.0,-100.00,NNE,29,6.0,19.0,74,0.00,,,0.00,0.000000,,2013-02-28 06:42:00,
2013-02-28 00:52:00,26.0,19.0,-100.00,NNE,29,6.0,19.0,74,0.00,,,0.00,0.000000,,2013-02-28 06:52:00,
2013-02-28 01:01:00,26.0,19.0,-100.00,NNE,29,6.0,19.0,74,0.00,,,0.00,0.000000,,2013-02-28 07:01:00,
2013-02-28 01:32:00,25.0,18.0,-100.00,NE,34,8.0,16.0,75,0.00,,,0.00,0.000000,,2013-02-28 07:32:00,
2013-02-28 01:42:00,25.0,18.0,-100.00,NE,34,8.0,16.0,75,0.00,,,0.00,0.000000,,2013-02-28 07:42:00,
2013-02-28 01:52:00,25.0,18.0,-100.00,NE,34,8.0,16.0,75,0.00,,,0.00,0.000000,,2013-02-28 07:52:00,
2013-02-28 02:01:00,25.0,18.0,-100.00,NE,34,8.0,16.0,75,0.00,,,0.00,0.000000,,2013-02-28 08:01:00,
2013-02-28 02:32:00,25.0,19.0,-100.00,NNE,28,7.0,16.0,76,0.00,,,-99.99,0.000000,,2013-02-28 08:32:00,
2013-02-28 02:42:00,25.0,19.0,-100.00,NNE,28,7.0,16.0,76,0.00,,,-99.99,0.000000,,2013-02-28 08:42:00,
2013-02-28 02:53:00,25.0,19.0,-100.00,NNE,28,7.0,16.0,76,0.00,,,-99.99,0.000000,,2013-02-28 08:53:00,
2013-02-28 03:03:00,25.0,19.0,-100.00,NNE,28,7.0,16.0,76,0.00,,,-99.99,0.000000,,2013-02-28 09:03:00,
2013-02-28 03:32:00,25.0,19.0,-100.00,NNE,31,6.0,14.0,76,0.00,,,0.00,0.000000,,2013-02-28 09:32:00,
2013-02-28 03:42:00,25.0,19.0,-100.00,NNE,31,6.0,14.0,76,0.00,,,0.00,0.000000,,2013-02-28 09:42:00,
2013-02-28 03:52:00,25.0,19.0,-100.00,NNE,31,6.0,14.0,76,0.00,,,0.00,0.000000,,2013-02-28 09:52:00,
2013-02-28 04:02:00,25.0,19.0,-100.00,NNE,31,6.0,14.0,76,0.00,,,0.00,0.000000,,2013-02-28 10:02:00,
2013-02-28 04:32:00,25.0,18.0,-100.00,NNE,29,6.0,15.0,74,0.00,,,0.00,0.000000,,2013-02-28 10:32:00,
2013-02-28 04:42:00,25.0,18.0,-100.00,NNE,29,6.0,15.0,74,0.00,,,0.00,0.000000,,2013-02-28 10:42:00,
2013-02-28 04:52:00,25.0,18.0,-100.00,NNE,29,6.0,15.0,74,0.00,,,0.00,0.000000,,2013-02-28 10:52:00,
2013-02-28 05:01:00,25.0,18.0,-100.00,NNE,29,6.0,15.0,74,0.00,,,0.00,0.000000,,2013-02-28 11:01:00,
2013-02-28 05:32:00,25.0,18.0,-100.00,NNE,28,6.0,14.0,74,0.00,,,0.00,0.000000,,2013-02-28 11:32:00,
2013-02-28 05:42:00,25.0,18.0,-100.00,NNE,28,6.0,14.0,74,0.00,,,0.00,0.000000,,2013-02-28 11:42:00,
2013-02-28 05:52:00,25.0,18.0,-100.00,NNE,28,6.0,14.0,74,0.00,,,0.00,0.000000,,2013-02-28 11:52:00,
2013-02-28 06:02:00,25.0,18.0,-100.00,NNE,28,6.0,14.0,74,0.00,,,0.00,0.000000,,2013-02-28 12:02:00,
2013-02-28 06:32:00,24.0,17.0,-100.00,NNE,31,5.0,14.0,75,0.00,,,0.00,0.000000,,2013-02-28 12:32:00,
2013-02-28 06:42:00,24.0,17.0,-100.00,NNE,31,5.0,14.0,75,0.00,,,0.00,0.000000,,2013-02-28 12:42:00,
2013-02-28 06:52:00,24.0,17.0,-100.00,NNE,31,5.0,14.0,75,0.00,,,0.00,0.000000,,2013-02-28 12:52:00,
2013-02-28 07:02:00,24.0,17.0,-100.00,NNE,31,5.0,14.0,75,0.00,,,0.00,0.000000,,2013-02-28 13:02:00,
2013-02-28 07:32:00,24.0,17.0,-100.00,NE,34,6.0,13.0,73,0.00,,,0.00,0.000000,,2013-02-28 13:32:00,
2013-02-28 07:42:00,24.0,17.0,-100.00,NE,34,6.0,13.0,73,0.00,,,0.00,0.000000,,2013-02-28 13:42:00,
2013-02-28 07:52:00,24.0,17.0,-100.00,NE,34,6.0,13.0,73,0.00,,,0.00,0.000000,,2013-02-28 13:52:00,
2013-02-28 08:01:00,24.0,17.0,-100.00,NE,34,6.0,13.0,73,0.00,,,0.00,0.000000,,2013-02-28 14:01:00,
2013-02-28 08:32:00,23.0,16.0,-100.00,NE,47,7.0,16.0,74,0.00,,,0.00,19.000000,,2013-02-28 14:32:00,
2013-02-28 08:42:00,23.0,16.0,-100.00,NE,47,7.0,16.0,74,0.00,,,0.00,19.000000,,2013-02-28 14:42:00,
2013-02-28 08:52:00,23.0,16.0,-100.00,NE,47,7.0,16.0,74,0.00,,,0.00,19.000000,,2013-02-28 14:52:00,
2013-02-28 09:02:00,23.0,16.0,-100.00,NE,47,7.0,16.0,74,0.00,,,0.00,19.000000,,2013-02-28 15:02:00,
2013-02-28 09:32:00,23.0,14.0,-100.00,NE,53,8.0,15.0,69,0.00,,,0.00,89.000000,,2013-02-28 15:32:00,
2013-02-28 09:42:00,23.0,14.0,-100.00,NE,53,8.0,15.0,69,0.00,,,0.00,89.000000,,2013-02-28 15:42:00,
2013-02-28 09:52:00,23.0,14.0,-100.00,NE,53,8.0,15.0,69,0.00,,,0.00,89.000000,,2013-02-28 15:52:00,
2013-02-28 10:01:00,23.0,14.0,-100.00,NE,53,8.0,15.0,69,0.00,,,0.00,89.000000,,2013-02-28 16:01:00,
2013-02-28 10:32:00,23.0,13.0,-100.00,NE,39,7.0,16.0,66,0.00,,,0.00,218.000000,,2013-02-28 16:32:00,
2013-02-28 10:43:00,23.0,13.0,-100.00,NE,39,7.0,16.0,66,0.00,,,0.00,218.000000,,2013-02-28 16:43:00,
2013-02-28 10:52:00,23.0,13.0,-100.00,NE,39,7.0,16.0,66,0.00,,,0.00,218.000000,,2013-02-28 16:52:00,
2013-02-28 11:02:00,23.0,13.0,-100.00,NE,39,7.0,16.0,66,0.00,,,0.00,218.000000,,2013-02-28 17:02:00,
2013-02-28 11:32:00,24.0,14.0,-100.00,NNE,22,6.0,13.0,65,0.00,,,0.00,276.000000,,2013-02-28 17:32:00,
2013-02-28 11:42:00,24.0,14.0,-100.00,NNE,22,6.0,13.0,65,0.00,,,0.00,276.000000,,2013-02-28 17:42:00,
2013-02-28 11:52:00,24.0,14.0,-100.00,NNE,22,6.0,13.0,65,0.00,,,0.00,276.000000,,2013-02-28 17:52:00,
2013-02-28 12:02:00,24.0,14.0,-100.00,NNE,22,6.0,13.0,65,0.00,,,0.00,276.000000,,2013-02-28 18:02:00,
2013-02-28 12:32:00,25.0,13.0,-100.00,NE,52,5.0,11.0,60,0.00,,,0.00,391.000000,,2013-02-28 18:32:00,
2013-02-28 12:42:00,25.0,13.0,-100.00,NE,52,5.0,11.0,60,0.00,,,0.00,391.000000,,2013-02-28 18:42:00,
2013-02-28 12:52:00,25.0,13.0,-100.00,NE,52,5.0,11.0,60,0.00,,,0.00,391.000000,,2013-02-28 18:52:00,
2013-02-28 13:01:00,25.0,13.0,-100.00,NE,52,5.0,11.0,60,0.00,,,0.00,391.000000,,2013-02-28 19:01:00,
2013-02-28 13:32:00,29.0,14.0,-100.00,NE,53,5.0,13.0,52,0.00,,,0.00,582.000000,,2013-02-28 19:32:00,
2013-02-28 13:42:00,29.0,14.0,-100.00,NE,53,5.0,13.0,52,0.00,,,0.00,582.000000,,2013-02-28 19:42:00,
2013-02-28 13:52:00,29.0,14.0,-100.00,NE,53,5.0,13.0,52,0.00,,,0.00,582.000000,,2013-02-28 19:52:00,
2013-02-28 14:01:00,29.0,14.0,-100.00,NE,53,5.0,13.0,52,0.00,,,0.00,582.000000,,2013-02-28 20:01:00,
2013-02-28 14:32:00,30.0,13.0,-100.00,ENE,58,5.0,12.0,49,0.00,,,0.00,680.000000,,2013-02-28 20:32:00,
2013-02-28 14:42:00,30.0,13.0,-100.00,ENE,58,5.0,12.0,49,0.00,,,0.00,680.000000,,2013-02-28 20:42:00,
2013-02-28 14:52:00,30.0,13.0,-100.00,ENE,58,5.0,12.0,49,0.00,,,0.00,680.000000,,2013-02-28 20:52:00,
2013-02-28 15:02:00,30.0,13.0,-100.00,ENE,58,5.0,12.0,49,0.00,,,0.00,680.000000,,2013-02-28 21:02:00,
2013-02-28 15:32:00,30.0,14.0,-100.00,NE,40,6.0,11.0,51,0.00,,,0.00,574.000000,,2013-02-28 21:32:00,
2013-02-28 15:42:00,30.0,14.0,-100.00,NE,40,6.0,11.0,51,0.00,,,0.00,574.000000,,2013-02-28 21:42:00,
2013-02-28 15:52:00,30.0,14.0,-100.00,NE,40,6.0,11.0,51,0.00,,,0.00,574.000000,,2013-02-28 21:52:00,
2013-02-28 16:01:00,30.0,14.0,-100.00,NE,40,6.0,11.0,51,0.00,,,0.00,574.000000,,2013-02-28 22:01:00,
2013-02-28 16:32:00,29.0,14.0,-100.00,NE,40,6.0,11.0,52,0.00,,,0.00,361.000000,,2013-02-28 22:32:00,
2013-02-28 16:42:00,29.0,14.0,-100.00,NE,40,6.0,11.0,52,0.00,,,0.00,361.000000,,2013-02-28 22:42:00,
2013-02-28 16:52:00,29.0,14.0,-100.00,NE,40,6.0,11.0,52,0.00,,,0.00,361.000000,,2013-02-28 22:52:00,
2013-02-28 17:01:00,29.0,14.0,-100.00,NE,40,6.0,11.0,52,0.00,,,0.00,361.000000,,2013-02-28 23:01:00,
2013-02-28 17:32:00,28.0,14.0,-100.00,NE,46,5.0,10.0,54,0.00,,,0.00,174.000000,,2013-02-28 23:32:00,
2013-02-28 17:42:00,28.0,14.0,-100.00,NE,46,5.0,10.0,54,0.00,,,0.00,174.000000,,2013-02-28 23:42:00,
2013-02-28 17:53:00,28.0,14.0,-100.00,NE,46,5.0,10.0,54,0.00,,,0.00,174.000000,,2013-02-28 23:53:00,
2013-02-28 18:01:00,28.0,14.0,-100.00,NE,46,5.0,10.0,54,0.00,,,0.00,174.000000,,2013-03-01 00:01:00,
2013-02-28 18:32:00,26.0,12.0,-100.00,NNE,27,3.0,8.0,56,0.00,,,-99.99,41.000000,,2013-03-01 00:32:00,
2013-02-28 18:42:00,26.0,12.0,-100.00,NNE,27,3.0,8.0,56,0.00,,,-99.99,41.000000,,2013-03-01 00:42:00,
2013-02-28 18:52:00,26.0,12.0,-100.00,NNE,27,3.0,8.0,56,0.00,,,-99.99,41.000000,,2013-03-01 00:52:00,
2013-02-28 19:01:00,26.0,12.0,-100.00,NNE,27,3.0,8.0,56,0.00,,,-99.99,41.000000,,2013-03-01 01:01:00,
2013-02-28 19:32:00,23.0,11.0,-100.00,NNE,16,2.0,6.0,60,0.00,,,0.00,0.000000,,2013-03-01 01:32:00,
2013-02-28 19:42:00,23.0,11.0,-100.00,NNE,16,2.0,6.0,60,0.00,,,0.00,0.000000,,2013-03-01 01:42:00,
2013-02-28 19:52:00,23.0,11.0,-100.00,NNE,16,2.0,6.0,60,0.00,,,0.00,0.000000,,2013-03-01 01:52:00,
2013-02-28 20:01:00,23.0,11.0,-100.00,NNE,16,2.0,6.0,60,0.00,,,0.00,0.000000,,2013-03-01 02:01:00,
2013-02-28 20:32:00,23.0,11.0,-100.00,NNE,22,2.0,4.0,60,0.00,,,0.00,0.000000,,2013-03-01 02:32:00,
2013-02-28 20:42:00,23.0,11.0,-100.00,NNE,22,2.0,4.0,60,0.00,,,0.00,0.000000,,2013-03-01 02:42:00,
2013-02-28 20:52:00,23.0,11.0,-100.00,NNE,22,2.0,4.0,60,0.00,,,0.00,0.000000,,2013-03-01 02:52:00,
2013-02-28 21:01:00,23.0,11.0,-100.00,NNE,22,2.0,4.0,60,0.00,,,0.00,0.000000,,2013-03-01 03:01:00,
2013-02-28 21:32:00,22.0,11.0,-100.00,NE,40,3.0,5.0,61,0.00,,,0.00,0.000000,,2013-03-01 03:32:00,
2013-02-28 21:42:00,22.0,11.0,-100.00,NE,40,3.0,5.0,61,0.00,,,0.00,0.000000,,2013-03-01 03:42:00,
2013-02-28 21:52:00,22.0,11.0,-100.00,NE,40,3.0,5.0,61,0.00,,,0.00,0.000000,,2013-03-01 03:52:00,
2013-02-28 22:01:00,22.0,11.0,-100.00,NE,40,3.0,5.0,61,0.00,,,0.00,0.000000,,2013-03-01 04:01:00,
2013-02-28 22:42:00,22.0,11.0,-100.00,NE,42,6.0,9.0,61,0.00,,,0.00,0.000000,,2013-03-01 04:42:00,
2013-02-28 22:52:00,22.0,11.0,-100.00,NE,42,6.0,9.0,61,0.00,,,0.00,0.000000,,2013-03-01 04:52:00,
2013-02-28 23:02:00,22.0,11.0,-100.00,NE,42,6.0,9.0,61,0.00,,,0.00,0.000000,,2013-03-01 05:02:00,
2013-02-28 23:33:00,21.0,10.0,-100.00,NE,51,5.0,9.0,61,0.00,,,0.00,0.000000,,2013-03-01 05:33:00,
2013-02-28 23:42:00,21.0,10.0,-100.00,NE,51,5.0,9.0,61,0.00,,,0.00,0.000000,,2013-03-01 05:42:00,
2013-02-28 23:53:00,21.0,10.0,-100.00,NE,51,5.0,9.0,61,0.00,,,0.00,0.000000,,2013-03-01 05:53:00,